Theta_e
287 288 287 289 287 287 286 286 286 285 287 286 285 286 287 287 283 281 286 288 286 288 291 292 293 294 294 294 295 296 296 295 294 293 289 288 289 289 289 289 289 289 288 287 287 287 286 285 284 285 284 284 284 284 284 284 284 283 283 282 281 281 280 280 280 280 279 279 278 278 278 277 277 276 276 275 274 274 273 272 272 271 271 271 270 271 271
285 286 286 287 286 286 286 286 286 287 286 286 286 286 287 287 286 287 288 288 287 290 291 293 294 295 296 296 297 296 295 294 294 294 293 288 288 289 290 290 290 289 289 288 288 287 286 286 285 285 285 284 284 284 283 283 283 283 282 281 281 280 280 280 280 279 279 278 278 278 277 276 275 275 274 273 272 271 271 270 270 271 270 270 270 270 270
283 285 286 286 286 285 284 285 286 286 287 287 287 286 287 287 286 288 288 286 286 292 294 294 295 296 297 296 295 294 295 294 293 294 293 289 289 289 289 290 289 290 291 290 289 288 287 286 286 286 285 284 284 283 283 283 283 282 281 281 280 280 280 279 279 278 278 277 277 276 276 275 274 273 272 271 270 269 269 269 269 269 269 269 269 270 270
280 285 284 284 285 285 284 284 285 285 285 283 285 284 287 285 284 286 286 284 285 291 294 294 294 295 294 294 294 294 294 294 294 293 293 291 292 293 292 291 291 291 290 290 290 289 289 288 287 286 285 284 283 283 283 282 282 281 281 280 280 279 279 278 278 277 277 276 275 275 274 273 272 271 270 269 269 268 268 268 268 268 268 269 269 269 269
280 285 285 284 284 283 280 281 284 286 286 287 287 288 289 288 289 285 283 284 290 292 293 292 293 293 293 293 293 293 294 294 295 294 293 291 291 292 292 292 292 292 293 292 292 290 290 289 287 286 286 284 283 283 283 282 281 280 280 280 279 279 278 277 277 276 276 275 274 273 272 271 270 270 269 269 268 267 267 268 268 268 268 268 268 269 269
281 285 284 285 280 274 276 287 290 289 286 286 285 285 287 289 290 287 290 290 293 293 293 292 292 293 293 294 295 295 294 295 295 294 290 290 292 292 293 293 292 292 293 292 292 291 291 290 288 287 286 285 284 284 283 281 280 280 279 279 278 278 277 277 276 275 274 274 273 272 270 269 269 268 268 267 267 268 268 268 268 268 268 268 269 269 269
280 285 284 279 273 275 286 291 291 291 290 290 288 288 289 290 291 291 290 291 292 293 294 294 294 295 296 296 295 291 291 293 294 294 295 293 292 294 294 294 294 293 293 293 292 289 288 289 287 285 284 283 282 282 282 280 280 280 279 279 278 277 276 275 275 274 273 272 271 270 269 268 267 267 267 267 267 267 267 268 267 267 267 268 268 269 269
284 282 280 274 274 286 287 290 291 292 291 290 289 286 289 290 291 291 289 291 293 293 294 295 296 295 296 296 295 294 295 295 295 295 294 293 294 294 295 294 295 294 293 293 291 290 287 285 284 285 284 283 282 281 281 280 279 279 278 277 277 276 275 274 274 273 272 270 269 268 267 267 267 267 266 267 267 267 267 267 268 268 268 268 268 268 268
279 280 281 279 286 286 285 286 287 289 286 286 285 282 285 291 292 292 291 291 293 293 294 295 295 295 295 292 293 295 295 296 296 295 294 293 294 295 296 295 295 294 293 290 291 286 284 285 284 284 283 282 282 279 278 278 278 278 277 277 276 275 275 274 273 273 271 269 268 267 267 267 266 266 266 266 267 267 267 267 267 267 267 268 268 267 267
286 280 278 279 279 276 281 290 291 294 294 293 292 288 285 292 293 294 292 291 292 293 293 293 293 293 290 288 291 295 296 296 296 296 294 293 295 295 295 295 294 293 291 287 285 286 284 284 284 283 282 282 280 279 278 277 277 277 276 276 276 275 274 274 273 271 270 269 268 267 266 266 266 266 266 267 267 267 267 267 266 267 267 267 267 267 267
284 281 278 277 276 279 287 288 292 294 294 293 291 286 281 288 292 293 293 292 293 292 292 292 292 289 286 288 291 295 296 295 294 292 291 292 293 294 295 295 295 293 288 286 285 284 283 283 282 282 281 280 279 278 277 276 277 276 276 276 275 274 273 273 272 271 269 269 268 267 266 266 267 266 266 266 267 267 267 267 267 267 267 266 266 267 267
283 282 279 277 282 282 288 290 291 294 294 294 287 278 278 290 292 294 294 292 292 292 291 291 290 288 286 288 292 295 295 294 292 290 290 290 290 291 292 291 292 290 286 285 283 284 284 283 282 281 281 280 278 277 276 276 276 276 276 276 275 274 273 272 272 271 270 269 268 267 267 266 266 266 266 266 266 266 266 266 266 266 266 266 265 265 266
282 282 280 283 283 288 290 291 292 292 293 289 281 276 285 289 290 292 294 293 293 292 292 291 290 290 292 294 294 293 291 290 291 291 291 291 291 291 291 292 290 286 286 287 286 285 284 282 281 280 280 279 278 276 276 275 275 276 276 275 274 272 272 271 270 270 269 269 268 267 267 266 266 266 266 266 265 265 265 265 265 265 265 265 265 264 265
281 282 280 280 284 289 293 293 293 290 286 280 279 288 292 290 289 290 289 288 288 288 288 289 289 290 291 291 290 290 290 291 291 291 292 292 291 288 287 287 286 285 283 283 282 281 281 280 280 279 279 278 277 276 275 275 276 276 275 274 272 271 270 270 269 268 268 268 267 266 265 265 265 265 265 265 265 264 265 265 265 264 264 264 264 264 265
284 283 280 279 276 284 285 288 289 289 283 284 288 289 291 292 289 289 289 289 289 288 288 289 289 290 291 290 291 291 291 290 290 289 290 290 289 288 288 287 284 284 284 282 282 280 279 279 279 279 279 278 276 275 275 275 275 274 274 272 271 270 269 268 267 267 266 266 265 264 264 265 265 264 264 264 264 264 264 264 263 263 263 263 264 265 266
276 277 277 277 282 284 288 285 280 282 284 287 292 290 288 291 290 288 288 288 288 288 288 288 289 290 290 290 291 291 291 291 290 290 290 289 288 287 285 286 284 283 283 282 281 278 277 277 278 278 278 278 276 275 276 275 274 273 272 271 269 268 267 267 266 265 265 264 264 263 264 264 264 263 263 263 263 263 264 263 262 262 263 264 264 264 264
277 273 277 282 285 286 287 286 284 284 285 287 291 290 289 289 289 289 287 287 288 288 288 289 288 288 289 289 290 289 290 290 289 289 289 288 288 286 285 284 282 281 282 281 279 276 276 276 277 277 278 278 277 275 276 274 273 271 270 269 268 267 266 265 264 264 263 263 263 263 264 264 263 262 262 262 262 263 263 263 263 263 264 265 264 264 265
283 283 285 287 284 282 282 284 284 283 284 289 290 288 287 287 288 288 287 288 288 288 288 288 288 288 288 288 289 290 291 290 290 289 288 287 286 285 283 282 280 279 279 278 277 277 274 274 275 276 277 278 277 277 274 273 272 271 270 269 267 266 265 264 263 262 262 262 263 263 264 264 264 263 262 263 263 263 263 264 264 264 265 264 264 265 265
275 270 280 279 279 281 282 282 283 284 287 288 287 285 286 286 286 287 287 287 287 288 288 287 286 287 288 289 290 290 290 290 290 290 289 288 286 285 283 282 279 277 277 278 278 278 277 274 275 275 275 276 276 274 273 273 272 270 269 268 267 265 264 263 262 262 262 261 261 262 263 264 264 263 264 264 264 263 263 264 264 264 265 265 265 265 265
274 273 278 279 281 282 282 282 282 285 286 285 285 285 286 286 286 286 286 287 286 286 286 286 286 286 288 288 289 290 290 290 290 290 290 289 288 285 283 281 279 277 278 279 279 278 278 277 275 275 275 275 274 272 272 272 270 269 268 267 266 264 263 262 262 262 262 263 262 262 263 263 263 263 264 265 264 263 264 264 264 264 264 265 265 265 265
276 279 279 280 280 280 281 283 286 286 283 283 283 284 284 284 284 285 285 286 285 286 286 286 286 287 288 289 289 289 290 290 289 289 289 289 288 286 284 279 278 280 279 279 279 278 279 277 274 274 274 274 272 271 271 270 269 268 267 266 265 264 263 262 262 262 262 262 262 262 262 263 263 264 264 264 265 265 266 266 266 265 265 266 266 266 266
272 273 276 278 272 272 278 279 281 282 282 280 278 279 279 280 281 283 283 284 286 286 286 286 286 286 286 287 287 286 287 288 287 287 287 288 287 287 286 283 280 279 279 279 279 278 279 276 274 274 273 273 271 271 270 269 269 268 267 265 264 263 263 262 262 262 261 261 262 262 262 262 262 263 267 268 267 265 265 269 270 271 270 267 267 267 266
271 276 277 277 278 277 279 280 279 279 279 278 276 276 277 279 281 283 282 280 280 282 284 286 286 286 286 286 286 286 286 286 287 287 287 287 287 287 285 282 280 279 279 279 278 278 279 276 274 274 273 273 270 269 269 269 268 268 266 265 264 263 263 262 262 262 262 261 262 262 263 262 262 262 264 267 270 269 269 270 271 272 272 272 272 271 268
276 276 272 273 274 274 276 278 276 277 278 276 275 276 278 279 279 279 278 278 278 279 281 282 284 284 284 284 285 284 285 286 286 286 287 287 287 287 287 285 283 281 279 277 278 278 279 277 275 273 273 272 269 269 268 268 268 268 266 265 264 263 263 263 263 262 262 262 262 262 262 262 262 262 263 263 266 270 271 272 272 273 273 273 273 272 272
272 271 271 272 272 274 276 275 275 276 275 274 274 275 275 275 275 276 276 276 277 277 277 278 280 281 282 283 283 283 284 285 286 286 286 286 286 286 286 285 284 282 281 281 280 279 279 276 274 272 272 271 269 268 268 268 268 267 266 266 265 264 263 263 262 263 262 262 262 262 261 262 262 263 263 264 264 265 269 272 273 273 272 272 273 272 272
270 269 270 271 273 274 274 273 273 273 272 273 273 273 273 274 273 273 272 272 272 274 274 276 277 278 280 279 280 281 282 282 283 284 284 284 285 285 285 285 285 285 284 283 282 280 278 275 273 272 271 271 268 268 268 268 268 267 267 266 265 264 263 263 262 262 262 262 262 262 262 263 263 263 263 264 265 265 264 265 268 270 272 272 272 272 272
269 269 268 269 271 271 272 269 269 271 271 272 271 270 271 271 271 270 269 270 270 272 273 274 274 275 275 276 276 276 276 277 278 279 280 282 282 283 285 285 285 284 284 283 281 280 278 274 272 271 272 271 269 268 267 267 267 267 267 266 265 265 266 265 263 263 263 263 263 262 263 263 263 263 263 264 264 264 263 264 264 263 262 263 268 270 268
267 267 268 266 266 267 268 269 269 269 269 269 269 269 269 268 266 265 265 267 268 268 269 269 270 269 269 270 271 270 271 271 271 273 275 276 278 281 282 282 283 283 283 281 281 279 276 274 272 271 271 270 267 266 266 267 267 267 266 266 265 264 264 264 264 263 263 262 263 263 263 263 264 263 263 263 263 262 262 263 263 260 259 259 259 267 269
266 265 265 266 266 266 267 268 267 267 266 268 268 267 266 264 263 264 264 265 265 265 265 265 266 267 267 267 268 267 268 269 270 271 272 274 275 276 277 279 280 281 281 280 279 276 271 270 270 270 269 266 265 266 266 266 266 267 266 266 265 264 264 264 264 263 263 262 262 263 264 262 262 261 262 261 261 261 261 261 260 259 258 258 258 260 262
264 264 263 263 264 265 266 264 264 264 265 266 265 264 264 263 262 262 262 262 263 262 262 263 264 263 265 264 265 266 267 267 268 269 270 271 273 274 276 277 278 278 277 274 274 270 270 270 271 270 269 265 265 265 266 266 267 267 267 266 265 265 264 264 263 263 262 262 262 264 261 260 261 261 260 259 259 259 259 258 258 257 257 258 260 257 256
262 263 262 262 263 265 264 263 263 263 264 263 263 262 262 262 261 260 261 261 261 261 261 261 261 262 262 263 264 265 266 267 267 268 268 269 271 272 273 274 274 275 276 278 278 274 272 271 270 271 269 265 265 265 266 266 267 267 266 266 265 267 267 266 265 262 262 262 261 260 260 260 259 259 258 258 258 257 258 258 257 256 256 256 256 255 255
260 260 261 264 265 263 262 262 262 262 262 262 261 260 260 260 259 259 259 259 259 259 259 259 259 260 261 262 262 263 263 264 265 266 267 268 269 270 272 273 275 276 277 278 279 277 272 271 269 270 267 265 265 265 266 266 266 265 264 266 265 264 265 266 264 263 261 260 260 260 259 259 258 258 258 257 257 257 257 257 256 256 255 255 254 254 255
258 258 260 261 259 260 260 261 261 260 260 260 260 260 260 260 260 259 259 259 258 258 258 258 259 260 260 260 261 261 262 263 264 265 266 267 269 271 273 275 276 277 278 278 278 277 273 270 270 266 264 264 264 265 266 266 265 265 265 265 264 263 264 265 264 261 260 260 260 259 259 258 258 258 257 257 257 256 256 256 255 255 255 254 254 253 254
259 258 259 259 259 258 258 259 260 259 259 260 260 260 259 259 259 258 258 258 258 258 258 258 258 259 259 259 260 261 262 263 264 266 267 269 270 272 274 275 276 277 274 269 269 269 269 269 265 262 263 263 264 265 265 265 265 264 264 264 263 263 262 262 261 260 259 259 259 258 259 257 258 257 256 256 256 256 255 255 255 254 254 253 253 251 256
261 261 261 260 260 261 260 259 259 258 258 257 257 257 258 258 257 257 258 258 257 258 258 258 258 259 259 260 260 262 263 263 264 264 265 267 268 270 271 272 273 270 266 265 265 265 265 263 262 262 262 263 264 264 265 265 264 264 263 263 262 262 261 260 260 260 259 258 258 258 257 257 256 257 256 255 255 255 255 254 254 254 253 252 252 251 254
259 258 259 259 259 259 258 258 258 258 257 257 257 256 256 257 257 257 257 257 258 258 258 258 258 259 259 260 261 262 262 263 264 265 266 267 268 269 270 269 269 266 262 260 258 257 259 260 261 262 262 262 263 264 264 264 263 263 263 262 261 260 259 259 259 258 258 258 257 257 257 256 255 255 254 254 254 254 254 253 253 253 253 252 251 251 249
258 257 257 257 257 257 256 257 257 257 256 256 256 256 256 256 256 257 257 257 257 257 258 258 258 258 259 261 261 262 262 263 264 265 266 267 266 266 266 266 266 263 262 259 256 257 258 259 261 262 262 262 262 263 263 264 263 263 262 261 260 259 258 257 256 256 257 257 256 255 254 254 254 254 254 254 253 253 253 253 252 252 252 251 250 249 248
256 256 256 256 256 256 255 256 256 256 256 255 256 256 256 256 256 256 256 257 257 257 258 258 258 259 260 261 261 261 262 263 264 264 263 262 262 263 264 263 262 261 262 258 256 257 258 259 261 261 261 261 262 262 262 264 264 262 261 260 259 258 257 256 257 256 256 255 254 254 254 254 253 253 253 253 253 252 252 252 252 251 251 250 250 248 247
255 256 256 256 256 255 255 256 256 256 256 255 255 255 256 256 256 256 256 256 257 258 257 258 259 260 259 259 259 261 262 262 261 259 259 260 262 260 255 253 254 256 257 256 257 257 258 259 259 260 260 261 261 261 261 262 262 261 260 259 259 258 257 257 257 255 254 254 254 254 254 253 253 253 253 252 252 252 252 251 251 251 250 250 249 248 246
254 254 254 255 254 255 255 254 255 255 256 256 255 255 255 256 256 256 256 256 257 258 258 259 259 258 258 259 259 259 259 259 258 257 258 258 256 255 254 254 254 255 257 258 257 257 259 260 260 259 260 260 260 260 260 260 261 260 260 259 258 257 257 256 255 254 254 254 254 254 253 253 253 252 252 252 251 251 251 251 251 250 250 249 248 246 246
254 254 254 254 254 254 254 254 254 255 255 255 255 255 256 256 257 256 256 256 257 258 258 258 258 258 258 259 259 259 258 255 254 254 256 257 257 255 253 251 254 255 255 256 257 257 258 259 259 259 259 260 259 260 259 259 259 259 258 258 257 256 255 254 254 254 254 254 254 254 253 253 252 252 251 251 251 250 250 251 251 250 249 248 247 246 245
253 254 254 254 254 254 254 254 255 255 255 255 255 256 257 257 257 257 257 258 257 257 257 258 260 259 259 259 259 257 255 255 254 254 253 253 254 254 252 251 254 255 256 257 257 258 258 258 258 259 259 259 258 259 260 258 258 257 256 256 256 255 255 255 255 254 254 254 254 254 253 253 252 252 251 251 251 251 252 252 252 251 251 248 246 246 245
253 253 253 253 253 253 254 254 254 254 254 255 256 256 257 257 257 257 257 257 256 257 257 258 258 259 258 257 257 256 255 256 255 254 253 254 254 254 253 253 254 255 258 257 257 257 256 257 258 258 259 258 258 259 259 258 258 257 256 256 256 256 255 255 254 254 254 254 254 253 253 253 252 252 251 252 252 252 252 252 252 251 251 250 249 245 245
253 253 253 253 253 253 254 254 255 255 254 255 257 257 257 257 258 257 257 256 256 257 256 256 256 256 256 256 255 255 254 254 255 255 253 253 253 254 255 255 255 257 258 257 257 256 256 257 257 258 258 258 259 259 258 257 257 257 257 256 256 256 255 255 255 255 254 254 254 254 253 252 253 253 253 253 252 252 251 251 251 250 250 250 247 246 245
253 253 253 252 253 254 254 255 255 255 256 256 257 257 257 257 257 257 257 257 256 256 256 255 255 256 256 256 255 254 254 254 253 254 254 253 252 252 255 257 257 257 257 258 256 256 255 256 257 258 258 259 259 259 258 257 257 257 257 256 256 256 255 255 254 254 254 254 254 254 254 253 253 253 253 253 252 251 250 250 250 250 249 247 247 246 245
252 253 253 255 254 254 255 256 256 257 256 256 256 257 257 257 257 257 257 257 256 255 255 255 255 255 255 255 257 256 255 254 254 255 254 254 253 254 256 258 257 258 258 257 255 255 256 258 258 258 258 259 259 258 257 257 257 257 256 256 255 255 255 254 254 254 254 254 253 254 253 254 253 253 253 252 251 250 249 249 248 248 247 247 245 244 244
252 253 253 254 255 256 256 256 256 256 256 256 255 255 256 257 257 257 257 257 257 256 256 255 255 255 255 255 254 255 254 253 254 255 256 256 257 257 257 258 258 257 256 255 255 255 255 256 257 258 259 259 258 257 257 256 256 256 255 255 255 255 254 254 254 253 253 253 252 251 252 251 251 250 249 250 249 248 247 247 247 246 246 246 245 246 245
253 253 254 254 255 256 256 256 255 254 254 254 255 255 256 257 257 257 257 257 257 257 256 255 255 255 255 255 255 255 255 254 252 253 256 257 257 256 256 255 255 257 256 257 256 257 258 258 258 258 258 258 256 256 256 256 255 255 255 254 254 254 254 253 253 252 252 251 252 251 251 250 249 249 249 248 248 247 247 246 246 246 245 244 244 244 243
254 254 254 255 255 255 255 255 254 254 254 255 255 255 256 256 257 257 257 256 256 256 255 254 254 254 254 255 255 255 255 256 255 253 256 257 256 255 255 256 257 257 255 255 255 255 257 258 258 258 258 258 256 256 255 255 255 254 254 254 253 253 253 253 252 252 252 251 251 251 250 249 249 249 248 247 247 246 246 245 245 244 244 244 244 244 244
253 254 255 254 254 255 254 254 254 254 255 255 255 255 256 256 255 256 256 255 255 255 254 254 254 254 254 255 255 255 256 256 256 256 256 256 255 255 255 255 255 257 257 255 255 255 256 257 257 257 256 255 255 255 255 255 254 254 254 253 253 252 251 251 252 252 251 251 251 250 249 249 249 247 247 246 246 245 245 244 244 246 249 247 244 243 243
253 254 254 255 255 255 255 255 255 255 255 255 255 256 255 255 255 255 255 254 254 254 253 253 254 254 254 255 255 255 256 256 256 257 255 255 255 256 256 255 255 255 255 255 255 255 255 255 255 255 255 255 255 254 254 254 253 253 252 251 251 251 251 251 251 251 251 250 250 249 249 248 248 247 247 246 245 245 245 244 244 243 243 242 242 243 243
255 255 255 256 255 255 255 256 256 256 256 256 255 255 255 254 254 254 254 256 254 253 253 252 252 254 255 255 255 255 255 256 256 255 256 255 255 255 255 256 254 254 254 254 254 254 254 254 254 255 255 254 253 253 253 253 252 251 251 251 252 251 251 251 250 250 250 250 250 249 248 248 247 247 246 246 245 245 244 244 244 243 243 243 244 244 243
Wind_Speed
22 20 21 20 19 19 19 17 15 17 16 12 14 16 19 20 17 20 13 18 22 22 20 19 23 22 17 16 20 23 22 18 13 13 7 6 7 8 8 9 9 9 10 10 12 12 12 11 12 14 13 12 12 10 10 12 13 15 14 14 14 14 14 14 14 12 10 10 10 11 11 12 12 12 12 11 11 10 9 8 7 6 6 5 5 4 3
15 16 20 21 25 23 23 21 21 22 22 22 18 21 22 20 20 20 22 24 27 22 20 23 25 21 20 22 22 23 22 19 19 21 14 6 8 9 10 11 10 10 9 10 12 12 12 13 15 14 13 13 14 14 14 13 13 12 13 15 15 14 15 13 11 10 11 10 11 11 11 12 12 12 12 11 11 10 9 8 7 6 6 5 4 5 5
18 21 22 22 24 23 25 26 23 21 22 25 29 25 19 20 22 22 25 25 24 19 26 25 21 22 22 23 27 29 25 20 20 20 16 7 8 9 11 11 10 11 12 12 11 11 13 14 16 15 15 14 12 11 11 12 14 13 12 13 13 13 13 11 11 11 12 12 12 12 11 11 11 12 12 11 11 10 9 8 8 7 6 6 5 5 6
17 17 24 26 26 25 26 25 24 23 27 30 26 18 19 21 24 25 25 18 18 22 21 14 17 19 21 24 26 25 20 19 18 18 15 8 10 12 11 10 9 9 10 11 13 14 15 15 15 13 12 11 12 14 13 13 12 11 12 12 13 13 12 12 13 14 13 13 13 12 12 12 12 12 12 12 11 11 10 10 8 7 7 7 7 6 6
17 15 20 23 22 19 20 22 23 34 35 27 19 21 24 23 22 21 18 22 21 24 15 16 18 21 23 25 24 21 21 19 19 18 13 8 10 10 10 8 8 9 10 11 12 13 13 14 13 14 14 12 14 14 13 12 11 13 13 13 12 12 12 13 14 14 13 14 13 13 12 12 11 11 12 11 10 10 10 8 8 8 8 8 7 7 7
12 13 18 12 14 18 19 14 30 32 31 28 28 27 28 33 25 20 22 25 22 20 17 20 22 22 24 24 22 17 13 16 19 13 7 8 9 9 10 9 8 8 9 8 10 10 12 14 16 16 14 16 13 11 11 11 13 13 13 12 13 12 12 13 13 13 14 14 14 12 12 11 11 11 11 8 8 7 8 9 8 8 8 8 7 7 7
11 10 11 13 22 22 9 17 23 26 30 28 30 32 32 30 27 28 26 26 24 22 21 21 23 26 27 26 22 7 8 13 13 13 16 11 10 12 10 9 8 8 9 8 8 7 8 11 8 7 8 7 9 11 12 13 13 14 13 13 12 11 12 11 11 12 12 12 12 12 9 9 9 8 8 9 10 8 8 9 9 9 9 9 8 7 7
8 8 11 16 20 1 7 16 17 17 21 26 27 30 27 28 28 27 26 23 21 22 24 25 25 25 27 24 16 11 16 16 14 16 14 12 11 12 10 11 12 10 9 9 8 9 6 5 7 10 12 11 12 12 11 14 12 12 12 12 12 12 12 13 13 14 14 14 14 15 11 9 9 11 9 10 11 9 8 7 7 7 7 7 8 8 7
15 12 15 24 11 17 5 3 10 13 17 15 19 23 27 27 25 23 23 23 23 25 26 27 25 23 19 14 15 13 16 19 18 14 13 10 11 13 13 11 12 11 8 6 7 5 6 8 9 10 10 11 11 11 11 10 12 11 12 13 14 14 14 15 16 16 17 18 18 17 13 13 12 12 13 12 10 9 10 9 9 9 8 8 7 7 7
16 18 18 15 15 18 15 16 14 20 23 23 24 19 26 8 14 16 22 23 26 28 28 25 21 15 15 15 15 18 22 21 17 15 9 9 11 11 11 10 8 7 4 2 4 8 7 8 8 8 10 12 12 12 11 11 12 12 13 14 14 15 16 16 17 17 18 19 20 19 14 12 13 12 10 9 10 10 10 12 10 10 8 7 6 6 7
13 20 17 15 16 15 5 15 17 19 18 19 15 12 24 5 15 16 22 24 24 25 22 21 16 12 13 14 15 16 19 15 10 10 8 9 9 10 11 11 11 7 5 6 7 5 7 7 6 8 10 12 12 12 12 12 12 14 15 15 16 17 16 16 16 16 17 18 19 18 19 12 11 13 12 11 10 8 7 8 8 8 7 6 6 5 5
15 19 17 18 7 10 7 10 11 16 15 12 5 18 16 7 20 20 22 23 20 17 15 13 12 11 14 14 14 15 16 13 9 6 6 7 7 7 8 7 8 5 7 7 5 7 9 9 8 10 10 11 11 12 12 11 13 15 17 16 14 12 13 15 15 15 15 17 17 18 17 11 8 10 10 9 10 10 8 7 7 7 7 6 6 4 4
21 20 18 12 9 3 6 11 10 11 13 7 14 23 13 2 5 9 12 16 15 14 15 11 12 10 13 14 13 9 7 6 8 7 6 6 7 8 9 10 6 6 7 8 10 10 7 8 9 9 10 11 11 11 12 13 17 16 12 11 12 13 13 14 14 15 13 15 16 14 16 16 10 9 9 11 10 9 10 9 8 8 8 6 5 4 4
17 17 18 17 12 4 4 9 13 5 3 9 15 8 15 15 15 16 15 16 17 16 15 13 11 13 15 15 14 15 15 12 11 11 12 13 12 8 8 10 6 4 3 2 2 2 4 9 10 11 11 12 11 12 12 17 16 10 11 12 13 14 15 15 14 14 15 12 13 13 12 12 10 10 8 8 9 8 7 9 10 7 7 5 4 4 4
13 14 14 12 12 3 17 21 6 3 2 6 9 11 9 11 11 14 14 12 12 14 14 14 14 15 15 14 14 13 13 12 11 10 10 10 8 8 7 7 4 1 1 3 5 6 5 8 9 10 11 12 12 12 16 16 11 12 13 13 14 14 15 15 14 14 13 15 12 11 13 11 10 12 9 9 9 8 11 9 9 8 7 6 5 5 4
7 6 5 1 5 8 11 9 6 8 8 13 11 11 10 10 10 11 11 11 11 12 11 12 14 14 14 16 17 16 14 11 11 10 8 7 7 7 3 0 2 2 4 4 3 3 4 6 8 10 14 13 12 14 17 9 11 12 13 14 14 15 14 14 14 13 14 13 12 11 13 12 7 11 10 9 8 6 7 8 8 7 6 6 6 5 5
4 6 11 14 15 7 6 4 4 11 14 15 6 6 7 10 10 9 7 9 11 9 10 11 12 14 15 15 14 13 12 11 9 9 9 7 7 6 6 5 2 2 5 4 1 3 4 6 6 8 9 13 12 16 10 11 13 14 14 15 16 15 15 15 14 13 13 12 13 13 12 13 11 10 11 9 9 7 8 8 7 7 7 7 6 6 6
7 9 13 15 9 14 20 19 16 13 16 10 3 10 9 7 8 8 9 9 10 9 5 7 11 12 13 16 17 16 15 13 10 7 7 6 4 4 3 2 2 4 2 2 4 6 5 6 7 7 9 9 14 12 8 10 12 14 16 16 16 16 15 14 14 15 15 13 12 12 14 7 7 10 12 9 8 9 7 8 8 8 7 7 6 6 6
15 14 4 12 17 22 23 23 22 15 4 2 5 8 8 10 11 10 6 8 10 9 9 8 10 13 14 14 15 14 12 12 12 11 9 7 5 4 5 5 5 3 5 5 7 8 9 8 9 9 10 10 7 6 11 11 12 13 15 16 15 15 16 14 14 16 17 14 12 12 11 8 7 7 8 8 9 9 7 9 9 8 8 7 7 7 6
12 16 17 19 15 18 16 14 12 8 6 9 11 12 9 9 10 11 12 11 11 9 11 10 11 13 13 11 12 12 11 11 11 12 12 11 9 5 5 5 5 6 6 8 9 8 11 10 10 10 10 11 8 9 11 13 13 14 15 16 17 17 17 15 14 15 15 14 15 9 7 8 10 8 7 9 9 10 11 11 11 9 9 8 8 8 7
16 15 15 13 11 12 11 9 4 8 14 16 15 13 14 13 14 14 13 10 11 11 11 10 11 12 12 11 10 12 13 13 12 13 14 14 12 8 5 5 7 9 8 9 10 10 12 8 10 11 12 10 9 13 13 14 16 17 16 14 13 15 15 14 14 13 13 14 13 12 9 5 4 7 9 11 10 8 6 6 8 9 9 8 7 6 6
13 11 10 13 17 17 17 14 11 14 15 15 17 18 16 14 14 14 14 14 11 10 12 13 13 13 14 14 13 13 14 14 14 14 14 12 11 10 8 6 7 9 9 10 10 11 11 8 11 12 13 11 10 12 14 15 17 18 16 15 14 15 14 14 13 14 12 12 13 11 10 12 12 9 8 12 9 9 9 12 14 12 11 7 7 6 6
13 15 18 12 9 13 13 17 15 14 12 15 18 17 16 14 13 11 14 17 19 16 13 11 12 13 13 15 14 15 14 15 13 13 14 15 13 11 7 6 7 8 9 9 10 11 11 9 11 12 12 12 12 13 15 16 18 18 17 16 14 14 14 14 16 16 14 14 13 15 16 17 17 14 11 9 13 15 15 15 14 15 13 13 14 13 7
18 9 10 9 6 9 13 12 14 12 12 13 14 14 14 15 17 17 15 14 16 17 16 14 10 12 15 16 15 17 17 17 17 16 14 14 14 15 13 10 8 9 8 8 10 14 11 9 12 11 12 12 14 14 15 16 17 17 19 18 17 17 16 14 15 16 14 15 13 9 9 7 9 11 14 15 10 13 16 15 14 14 14 14 14 13 14
7 2 3 6 10 13 9 10 10 6 7 10 11 13 13 15 15 16 18 18 16 16 16 18 18 13 12 13 14 15 14 16 15 16 16 16 16 15 14 14 12 9 10 11 10 10 10 10 10 11 13 13 13 15 16 17 18 19 20 19 17 16 15 15 16 15 14 13 10 11 11 12 12 13 12 13 17 13 11 14 14 13 14 13 13 13 13
5 9 11 10 6 8 9 12 12 13 17 17 17 15 17 14 15 16 16 17 17 17 16 15 17 18 16 16 14 15 15 16 18 19 15 15 15 14 14 13 13 11 10 10 10 11 10 11 13 12 14 14 15 17 17 18 19 20 21 20 19 18 18 19 18 17 15 10 11 10 10 13 14 12 12 13 13 15 15 11 10 11 12 14 14 13 12
6 8 12 16 15 14 10 7 10 14 15 15 15 17 14 14 14 13 14 14 15 15 16 17 16 17 17 17 17 16 16 19 20 19 17 18 17 17 15 13 12 12 12 11 10 11 12 10 11 12 15 14 14 14 16 17 18 17 17 17 14 16 21 18 17 16 14 12 13 14 14 14 13 13 12 11 12 13 13 13 13 12 8 5 7 10 5
6 6 5 2 9 12 14 14 11 13 16 16 15 14 15 16 17 17 16 15 15 16 16 14 14 15 17 16 15 17 18 17 17 17 17 17 16 17 18 18 17 16 14 12 12 11 9 9 10 12 13 9 11 14 16 17 18 18 17 17 15 14 16 19 16 9 15 16 17 18 14 13 12 12 12 12 12 10 9 9 10 9 7 5 2 5 11
5 4 3 5 10 12 13 13 14 13 14 14 12 12 12 14 17 15 14 14 14 15 16 18 17 14 14 17 16 17 17 17 17 18 17 17 18 17 19 19 19 17 15 15 14 9 4 5 8 11 11 8 12 14 16 17 17 17 16 16 15 15 14 15 14 12 16 19 18 15 14 13 12 11 10 10 9 9 9 9 9 7 8 6 5 4 5
7 5 6 8 9 10 10 12 13 14 12 10 12 14 12 13 15 15 13 11 12 16 16 16 16 17 14 15 15 15 16 19 21 20 20 20 19 17 16 16 16 17 16 14 13 5 5 9 11 12 11 10 13 14 16 17 16 16 16 16 14 14 14 16 16 18 18 18 14 16 15 16 10 9 11 11 10 10 10 9 9 9 8 7 6 6 6
13 11 11 12 10 7 9 14 14 14 13 13 12 13 15 11 12 16 15 15 15 14 16 16 18 19 18 15 15 16 16 16 18 19 20 20 18 17 16 14 14 15 15 16 13 10 12 12 12 13 9 11 14 15 16 16 13 13 12 12 12 14 19 20 19 18 15 14 14 17 15 11 11 12 12 11 10 9 9 9 9 8 7 7 7 6 5
15 15 10 6 5 10 12 9 10 11 13 14 16 17 14 13 17 20 19 18 19 19 21 23 20 18 19 18 16 16 17 16 18 20 19 18 19 17 15 15 17 18 19 19 17 12 10 10 13 12 10 13 14 15 15 15 13 13 14 14 14 13 18 26 17 14 13 14 15 13 12 13 13 12 11 11 10 10 10 10 9 8 8 8 7 6 5
10 15 17 15 17 18 19 14 7 14 16 17 16 13 13 12 12 14 15 17 19 21 19 19 19 19 19 20 20 19 19 19 19 18 18 18 17 15 13 14 15 17 17 16 14 11 8 12 12 7 11 13 14 15 15 14 13 13 14 14 13 14 16 17 16 14 12 14 13 13 12 11 11 11 10 10 9 9 9 9 9 8 8 7 7 6 5
7 8 11 11 8 12 16 24 22 17 16 15 14 13 14 14 12 15 15 16 19 20 19 21 22 22 20 19 20 21 18 17 15 15 15 15 16 17 15 15 15 15 11 6 5 3 4 5 6 10 11 13 14 14 14 15 13 13 14 14 14 15 14 13 15 14 13 12 12 13 12 12 11 11 10 10 9 9 9 9 8 8 8 7 5 4 3
10 12 12 13 12 13 15 17 19 19 18 20 24 21 15 13 15 17 19 19 20 21 20 19 21 21 21 20 18 16 14 16 19 21 21 18 16 17 17 18 18 11 6 3 2 2 2 6 9 11 12 13 14 14 15 15 14 13 14 14 15 14 14 14 13 14 14 14 13 13 11 11 10 8 10 10 9 9 9 8 8 8 8 7 5 3 3
10 12 11 11 11 12 13 15 16 18 18 18 19 20 22 20 19 19 20 20 17 19 20 20 20 21 21 20 18 19 19 18 17 19 19 18 16 15 15 17 15 9 3 2 5 4 6 8 12 14 12 12 12 13 15 14 14 14 14 14 13 13 13 13 12 12 12 13 12 11 10 10 10 10 10 9 9 8 9 8 8 7 7 7 6 6 4
8 12 13 13 12 12 14 14 14 16 18 19 19 20 23 23 19 18 18 18 18 18 19 20 20 21 20 18 18 19 18 17 15 16 16 15 14 17 18 18 11 7 5 6 1 4 7 8 13 16 12 10 11 13 15 19 14 14 13 13 13 14 13 14 14 16 13 11 11 11 12 11 9 9 8 8 9 8 8 8 7 7 6 6 6 6 4
11 11 13 14 14 14 14 14 13 16 19 24 22 18 19 21 21 19 19 18 18 18 19 19 20 20 19 19 19 19 19 17 17 18 17 18 18 19 17 9 5 2 5 1 6 7 6 10 15 11 9 9 11 12 15 19 17 15 13 14 14 14 16 17 15 12 13 15 12 11 11 10 10 9 8 8 8 8 8 7 7 7 7 6 6 5 4
13 11 11 12 13 13 15 15 13 14 15 21 24 22 17 17 20 20 19 18 17 17 18 17 18 19 19 20 19 17 17 17 18 20 22 20 13 5 3 5 6 5 3 5 8 8 10 10 8 8 8 9 11 12 15 18 18 13 13 13 14 14 16 15 15 13 13 12 10 10 10 9 9 9 8 8 8 7 7 8 8 7 7 6 6 6 4
13 12 14 14 14 13 14 16 15 15 15 14 17 21 19 18 17 18 18 18 17 17 17 17 18 17 19 19 18 17 16 14 13 14 13 6 5 4 4 7 8 5 7 9 8 7 9 12 9 7 7 9 10 11 12 16 14 12 12 11 12 13 14 14 16 18 14 11 12 11 10 9 9 8 8 8 8 7 7 7 7 7 7 6 6 5 4
14 14 14 13 15 14 14 16 17 15 14 15 15 17 17 18 18 18 18 18 17 15 16 16 16 17 16 16 17 15 10 8 10 12 11 6 5 4 4 4 5 5 3 6 6 7 9 8 7 8 8 9 9 11 12 14 12 10 12 15 13 14 16 18 15 12 12 12 11 10 10 9 9 9 8 8 7 7 6 6 6 6 7 7 6 5 3
16 15 16 16 15 15 16 16 16 17 15 14 16 17 17 17 17 18 16 15 15 15 15 16 18 16 15 14 12 8 6 8 8 7 7 6 5 2 2 2 2 2 3 6 8 7 5 6 7 7 9 9 10 14 14 12 12 13 11 11 11 9 11 11 12 11 10 9 9 9 9 8 9 8 8 7 7 6 6 6 6 6 5 5 5 5 4
15 17 17 16 16 16 16 16 17 17 18 16 15 15 15 16 16 14 12 14 14 13 14 13 13 13 12 11 9 7 5 5 5 6 5 5 7 5 1 3 1 2 8 6 6 5 6 6 7 7 10 11 12 17 15 12 13 13 9 10 12 10 10 10 10 10 10 9 8 8 8 8 8 8 8 7 7 7 6 7 7 6 6 5 5 4 3
17 16 15 16 17 16 16 16 16 15 16 16 15 15 16 15 12 12 13 13 13 12 12 11 11 9 9 9 7 6 6 6 5 4 3 3 6 8 6 3 4 6 8 6 6 6 6 7 7 12 16 18 18 16 12 12 10 12 11 11 10 10 8 10 9 9 9 9 8 8 8 8 8 7 8 8 7 7 6 6 6 6 6 5 4 4 3
16 15 16 17 18 17 15 15 16 17 17 16 16 15 13 11 11 11 11 11 11 10 10 10 10 10 8 5 5 5 5 4 5 4 3 3 4 5 4 5 6 5 7 9 7 7 8 9 13 16 16 17 16 16 13 9 7 9 10 10 10 10 10 10 9 8 8 8 7 7 6 7 7 7 7 7 7 7 7 7 6 6 6 5 5 4 3
16 15 15 17 17 16 15 17 16 15 15 15 14 13 11 10 11 11 9 8 8 7 8 9 9 9 10 9 7 4 6 6 6 6 4 2 3 3 4 5 6 7 13 13 8 10 10 16 17 16 16 16 16 12 11 10 7 9 10 10 10 10 9 9 8 8 8 8 8 7 7 7 7 6 6 6 6 7 6 7 6 5 5 5 4 4 3
15 15 16 15 16 17 17 16 15 15 15 13 12 11 11 11 11 9 8 9 7 7 7 8 9 9 9 8 7 5 5 5 6 6 5 6 7 8 10 13 13 16 13 10 9 10 10 12 14 18 18 18 16 11 11 13 9 9 10 10 10 9 8 9 9 8 8 7 7 8 7 7 7 8 7 7 7 7 6 6 6 5 4 3 3 2 2
16 17 17 20 19 18 17 14 12 11 11 10 11 11 10 11 11 9 8 8 8 6 7 7 8 9 10 8 7 5 3 2 5 6 5 6 7 9 9 9 11 18 19 15 15 15 19 18 19 19 19 16 12 9 7 8 9 9 9 10 9 8 8 7 7 6 7 8 7 6 7 10 9 7 6 7 6 6 6 6 5 4 4 4 4 4 4
16 19 19 16 14 15 13 12 11 10 9 10 11 9 10 11 10 7 8 10 11 7 7 8 9 9 9 9 8 6 6 4 4 4 5 8 9 9 10 12 18 18 14 12 12 10 14 18 18 19 17 13 9 8 7 7 8 9 9 8 7 7 7 7 6 6 6 7 6 7 6 7 7 6 7 6 6 6 5 4 4 4 4 3 3 3 2
15 13 10 10 10 9 9 9 8 8 9 9 8 8 9 9 7 7 8 8 8 8 7 7 7 8 8 7 8 7 8 9 9 9 10 10 11 10 10 11 12 16 15 12 12 11 13 18 17 15 12 9 9 9 9 9 8 9 8 9 8 7 6 8 8 8 7 7 6 6 6 6 6 6 6 6 6 5 4 4 3 3 4 2 2 2 3
10 9 10 9 8 8 10 9 9 9 8 8 8 8 8 8 7 7 7 9 7 7 8 7 7 8 7 8 7 8 8 9 10 9 9 10 11 11 10 9 12 11 12 12 11 9 8 8 8 9 10 9 8 9 8 8 7 8 8 7 7 6 6 7 5 5 6 6 6 6 6 6 6 6 5 5 5 4 4 3 3 2 2 2 3 3 4
11 10 9 7 8 8 8 7 7 7 7 7 7 7 7 7 6 7 7 11 8 6 7 6 7 8 7 7 8 8 8 9 8 8 8 9 9 9 10 11 10 12 12 10 9 8 8 8 10 12 11 8 6 7 9 11 8 7 7 7 7 6 6 6 6 6 5 6 7 7 6 5 5 6 5 4 4 3 3 3 3 2 2 3 3 3 4
Wind_Direction
248 254 264 268 271 268 266 264 268 277 280 264 252 249 249 247 246 260 257 252 257 257 255 266 267 272 280 289 291 286 285 290 290 277 232 241 236 243 242 242 230 218 216 206 207 210 206 195 191 197 193 195 197 199 193 185 183 186 177 178 184 186 187 191 191 182 170 168 168 166 163 157 152 150 144 138 134 133 135 134 132 131 131 131 143 133 143
241 243 242 245 255 262 264 259 258 261 264 268 262 256 251 249 254 256 255 252 253 259 263 257 261 272 283 286 285 282 282 281 278 274 270 235 241 228 232 235 233 232 228 219 216 210 206 198 200 199 196 194 194 190 190 187 183 180 172 183 182 185 188 188 174 166 166 164 166 162 158 157 152 144 140 135 132 130 130 128 124 126 128 127 136 155 173
239 235 240 239 242 243 255 259 260 257 258 256 250 250 259 270 264 259 256 255 260 259 255 259 268 269 268 271 271 271 271 271 271 274 275 248 242 225 223 227 232 234 231 229 226 217 214 207 206 200 197 194 188 187 187 183 183 179 172 176 182 182 183 173 165 161 163 165 159 161 157 148 145 140 136 133 128 126 127 128 132 130 132 140 153 175 186
240 229 237 238 239 238 242 251 260 259 250 248 249 251 246 244 251 253 258 261 258 255 258 268 263 263 260 258 260 263 267 266 270 269 269 249 248 251 242 227 227 231 226 225 225 220 217 214 208 201 195 186 180 191 183 182 177 165 172 176 178 179 175 166 165 165 164 159 158 156 151 149 145 138 133 133 132 134 133 134 134 134 143 160 167 178 194
238 226 230 234 237 239 241 233 238 246 248 246 252 246 249 246 243 250 251 248 247 255 262 266 261 257 255 256 254 259 261 267 264 263 265 238 232 243 252 237 229 231 236 234 228 222 217 214 207 204 192 177 188 187 178 176 155 167 175 176 175 173 170 167 167 165 159 157 155 152 153 146 140 136 135 127 130 134 137 133 134 145 159 164 174 184 195
242 225 238 233 233 223 224 195 220 228 240 242 241 240 238 241 233 235 232 245 247 252 251 249 254 256 254 251 251 244 243 257 260 262 244 237 242 247 252 251 236 233 233 236 236 228 216 210 205 201 183 187 187 169 160 154 163 171 171 176 173 172 167 168 165 161 158 155 152 148 141 137 130 117 115 120 118 120 128 137 145 151 159 166 174 185 194
242 233 239 240 232 237 215 207 218 227 238 242 242 243 238 242 244 246 247 247 246 246 247 248 247 248 252 255 254 242 229 241 257 268 267 255 246 253 258 263 258 250 241 233 238 238 224 212 196 155 170 164 142 150 158 162 168 168 174 168 170 166 164 161 156 154 151 149 143 128 123 115 113 115 121 122 130 138 142 148 152 157 164 168 177 177 191
251 229 218 241 239 219 225 217 215 219 233 235 244 253 250 249 246 247 251 252 254 252 249 248 248 250 253 258 268 261 255 254 253 255 258 254 254 261 260 259 263 258 247 238 227 229 206 152 167 171 173 160 155 164 160 163 164 166 163 165 166 162 162 160 158 157 153 147 143 139 129 131 129 135 135 142 143 143 140 140 146 150 160 162 174 181 186
235 230 225 241 270 270 160 151 205 200 222 221 224 248 244 232 239 243 252 252 251 251 249 247 248 252 261 271 270 261 259 257 250 243 241 235 250 260 265 263 256 248 250 225 221 178 158 168 162 179 162 156 150 145 155 159 157 160 162 168 171 167 166 164 163 161 157 153 152 147 150 149 150 150 149 147 144 145 144 150 155 162 164 167 172 170 180
218 244 247 250 241 242 234 216 209 210 226 230 235 240 264 207 237 226 239 241 244 248 252 254 255 262 268 262 259 254 254 252 257 260 247 229 241 249 257 261 258 253 240 168 154 155 162 174 178 156 156 153 149 152 155 155 159 166 171 178 173 171 171 169 166 163 161 158 157 159 160 155 152 149 142 139 145 154 152 156 162 161 159 152 165 172 186
217 233 236 236 241 247 186 225 220 223 226 238 247 259 263 170 231 229 241 244 243 245 251 256 257 247 245 245 247 254 256 259 249 247 244 235 229 233 235 237 245 240 193 159 152 142 151 168 175 156 154 151 149 159 159 163 168 172 184 180 177 177 173 167 165 163 164 163 161 162 164 155 146 144 149 149 146 140 140 139 142 144 148 153 158 173 185
221 233 235 241 221 256 190 192 204 220 219 231 249 257 269 165 219 228 235 241 247 253 248 239 236 233 249 246 246 243 250 249 247 238 232 238 243 241 242 241 231 201 142 117 132 155 177 185 156 155 153 155 160 160 166 164 174 188 190 186 175 164 161 164 165 165 168 167 164 162 159 142 130 137 136 132 139 141 141 135 137 139 144 149 156 161 173
231 230 246 253 258 215 183 203 202 204 212 208 235 245 276 289 252 265 264 267 268 272 274 267 264 242 247 258 262 263 272 295 299 286 261 236 221 233 242 247 200 140 165 165 180 186 179 156 153 154 154 155 170 169 167 175 194 194 180 164 162 160 160 163 166 167 167 170 163 161 154 151 134 127 138 139 137 142 140 141 140 141 146 145 147 166 186
229 234 237 244 258 274 299 243 213 173 94 247 247 326 5 14 18 11 14 10 15 13 2 359 346 341 345 348 352 348 344 340 342 349 351 352 348 358 16 25 38 53 61 67 79 110 150 154 159 161 162 172 173 171 176 197 197 164 160 162 158 157 163 165 165 164 166 165 159 152 150 137 127 131 130 130 134 129 127 137 137 126 127 139 151 177 194
244 233 242 240 227 23 13 338 301 16 266 8 331 311 351 18 21 12 4 9 3 11 353 345 341 339 344 351 349 347 347 353 350 350 353 356 356 355 356 348 1 60 155 172 186 173 168 165 164 170 167 175 181 179 195 199 163 161 158 157 158 158 159 163 164 161 160 159 156 151 148 147 123 131 133 129 129 131 136 127 127 132 141 153 164 178 182
341 308 262 164 67 322 351 25 357 343 338 323 331 357 340 350 16 8 354 349 354 353 343 337 336 337 338 338 339 335 331 333 332 331 334 338 348 348 353 177 236 188 232 233 202 167 168 175 175 173 177 180 186 193 207 161 157 153 155 154 154 157 161 162 157 157 154 153 151 153 149 143 111 124 133 132 128 129 121 126 129 135 147 161 165 169 185
303 268 288 293 306 336 315 352 292 308 315 308 285 9 351 342 349 354 342 332 341 338 333 331 336 331 333 324 320 318 310 311 312 312 312 316 324 320 308 286 212 184 223 253 199 184 197 191 195 191 192 190 190 206 193 152 158 158 156 155 157 161 163 162 157 151 150 151 153 155 155 146 131 129 129 134 127 135 131 133 134 139 155 159 166 176 180
287 267 257 281 315 315 315 307 304 309 307 290 305 359 337 335 321 327 323 318 313 317 306 323 323 321 314 313 312 312 311 309 305 299 299 302 302 297 282 287 207 214 215 223 201 213 209 201 201 205 208 197 199 205 141 159 159 159 158 159 162 164 161 159 156 149 146 149 151 152 139 122 124 139 141 144 133 138 137 137 144 148 153 155 169 180 182
327 288 313 293 308 307 304 306 308 323 306 347 350 325 322 314 311 304 299 297 305 306 302 302 296 297 298 296 297 296 298 301 303 303 296 286 277 273 272 245 197 184 194 215 224 219 222 200 199 204 205 214 202 142 163 156 159 159 162 163 161 162 163 160 156 157 154 154 153 154 150 132 127 123 130 129 131 137 145 146 148 154 155 164 174 177 180
269 281 291 298 297 279 280 287 307 328 344 336 331 325 314 316 314 313 313 316 306 304 302 301 298 293 291 285 284 288 290 295 298 300 300 298 301 271 233 227 188 196 197 215 226 221 227 210 194 201 204 208 182 154 155 160 157 160 165 171 169 169 165 162 164 164 160 153 152 148 151 147 141 138 137 141 142 152 160 159 155 160 165 173 177 174 175
289 282 278 270 300 318 311 318 345 332 340 342 353 357 349 344 341 336 329 328 320 320 310 306 301 297 295 292 291 291 295 294 294 294 295 295 289 281 269 217 192 201 211 218 223 221 230 202 185 198 206 199 172 162 162 161 162 165 171 169 165 164 165 163 167 167 159 160 156 148 137 109 82 136 147 152 149 141 137 141 152 154 162 168 168 168 166
283 291 318 351 328 314 317 319 0 8 6 0 348 346 346 341 333 327 323 320 319 314 311 313 310 304 302 303 303 298 295 293 295 297 297 295 295 290 272 243 209 216 213 214 221 222 228 188 186 200 202 190 176 169 162 165 166 170 168 166 167 171 171 172 166 162 160 160 157 154 140 146 141 128 119 133 137 140 140 153 156 159 161 164 164 159 167
297 311 322 345 331 312 309 326 2 358 5 353 345 334 330 325 324 331 332 324 320 315 310 306 306 305 306 306 310 305 301 295 292 290 293 295 296 290 279 264 251 229 225 217 224 233 231 198 199 202 195 186 176 172 169 170 173 173 164 168 173 172 174 180 175 167 160 155 158 149 138 134 137 137 136 134 138 138 142 153 160 165 167 172 172 173 174
286 327 18 349 334 307 316 340 344 336 345 346 328 320 319 326 326 325 321 314 308 308 307 301 291 292 295 296 296 293 292 291 291 289 287 287 288 292 290 274 254 255 246 229 227 235 234 208 207 196 193 188 180 176 173 173 175 173 173 171 175 180 179 173 166 168 162 156 150 140 140 140 135 132 132 127 135 149 153 158 166 172 167 172 173 178 173
329 8 325 329 307 299 312 327 315 303 323 324 322 317 323 325 326 323 316 315 312 309 309 307 306 299 294 293 295 293 292 294 294 295 297 295 289 285 284 284 276 256 248 240 237 237 233 215 207 196 197 194 179 177 177 177 177 178 180 180 178 173 172 167 168 167 160 159 153 149 141 143 142 140 140 141 139 142 156 164 165 164 162 167 169 169 166
30 353 335 316 303 303 322 329 334 346 338 333 324 322 326 332 326 320 313 311 312 311 305 301 304 311 316 311 305 308 309 306 305 304 298 291 291 288 282 277 277 275 260 249 243 234 227 215 206 200 203 196 183 183 179 180 182 185 183 184 179 173 172 170 167 170 170 162 150 148 139 145 148 146 147 148 147 144 136 148 163 157 156 161 163 159 159
60 6 354 341 330 323 332 356 305 314 313 315 314 310 314 323 319 309 303 302 302 304 305 307 311 312 311 309 313 314 311 309 309 304 301 299 298 295 294 294 286 278 272 262 253 240 232 217 207 205 212 204 183 177 178 181 184 186 186 182 177 179 173 168 170 168 165 159 148 138 146 143 145 145 145 147 147 150 156 163 158 146 146 126 141 139 117
66 28 24 337 296 297 300 308 304 306 308 309 310 313 320 323 319 314 312 314 316 315 310 307 314 313 310 309 311 309 308 303 297 295 296 294 294 296 296 297 297 295 287 272 260 252 231 213 212 213 221 197 169 177 179 181 185 185 184 181 177 174 174 176 171 162 144 143 144 142 143 140 141 142 140 145 148 150 152 153 145 140 136 145 135 155 136
15 356 297 261 264 277 285 292 302 295 290 298 306 310 319 315 303 300 301 306 307 306 306 311 313 309 306 306 309 306 303 299 298 297 295 293 291 289 293 296 297 296 292 284 274 263 232 211 215 220 223 174 171 178 179 181 184 185 183 182 177 175 175 175 172 150 148 143 145 139 133 131 130 129 128 130 127 135 146 149 144 141 141 139 135 110 81
310 312 303 281 266 259 279 303 301 302 302 296 309 306 307 306 299 299 297 292 302 303 298 304 306 303 306 302 299 299 303 301 297 294 290 289 289 288 287 291 292 287 281 274 269 253 213 223 221 222 216 175 176 176 177 183 187 188 183 180 176 173 169 163 157 151 132 128 138 131 125 118 107 127 135 138 141 144 146 146 146 143 147 153 146 141 133
311 304 299 284 268 270 283 283 287 284 288 305 309 303 304 301 293 296 298 304 308 302 304 304 302 299 298 295 292 292 290 287 285 285 286 288 287 287 286 286 282 279 279 278 270 236 228 229 221 224 199 169 173 174 175 180 180 175 169 167 163 158 154 153 150 145 145 137 131 122 116 126 125 134 135 137 139 142 144 143 143 142 141 137 135 137 144
308 309 297 258 292 297 288 269 267 286 297 304 309 310 314 319 314 311 310 310 305 305 307 306 304 303 303 301 298 294 294 291 285 282 281 281 282 281 279 274 268 265 265 267 268 258 231 223 221 218 165 166 168 171 172 175 171 168 166 160 157 151 150 149 151 148 142 137 132 131 134 133 129 125 133 140 145 146 144 143 145 145 143 141 139 148 169
322 326 330 337 334 324 317 305 283 301 309 310 303 300 302 304 299 297 300 301 303 304 303 299 298 299 301 300 299 298 295 292 285 278 275 274 272 271 270 272 270 269 264 260 263 258 217 214 220 163 154 161 164 168 171 168 162 159 158 156 152 149 151 152 142 139 132 131 131 132 133 134 136 136 138 138 137 138 140 140 140 139 139 138 140 167 192
288 273 277 294 295 299 303 307 312 314 306 296 288 295 304 306 304 299 298 299 294 294 296 299 300 299 298 297 296 293 287 285 287 289 286 283 285 288 289 286 287 286 287 311 321 247 217 207 141 143 151 153 158 163 165 160 156 154 155 150 148 149 148 145 145 138 136 127 128 130 131 134 137 137 137 137 138 139 141 142 141 140 134 131 135 168 258
287 287 286 286 288 283 287 287 294 298 303 304 306 306 298 294 300 299 299 298 295 295 296 296 295 295 294 290 283 279 285 289 291 291 291 291 290 292 292 289 287 276 275 349 4 10 103 122 131 135 143 152 156 160 158 157 150 148 147 146 147 145 145 146 149 147 135 131 129 130 127 128 127 123 126 132 136 137 136 135 137 137 132 130 129 122 43
298 291 288 286 283 283 283 283 283 286 288 289 291 294 299 302 302 298 300 299 298 296 294 293 293 293 291 291 294 297 295 290 286 284 289 292 296 297 298 299 292 274 202 35 20 16 98 118 133 140 147 151 154 153 153 146 143 144 145 145 144 141 143 145 137 123 121 125 127 125 128 119 116 125 130 128 129 131 131 131 133 130 128 128 133 121 75
290 290 291 291 289 285 283 282 284 287 288 288 289 294 294 295 293 294 296 296 297 296 294 293 292 289 286 289 291 290 286 284 287 288 290 297 306 304 296 289 272 253 225 234 85 41 101 134 143 140 140 147 151 151 146 143 144 144 143 143 141 143 138 130 126 119 119 116 115 117 117 120 122 120 122 125 128 127 128 127 125 123 120 127 123 121 103
295 292 291 289 291 288 283 280 282 283 285 285 283 281 285 292 297 299 296 295 295 294 293 289 286 285 288 293 291 287 288 289 291 298 305 300 297 288 284 282 273 249 236 265 127 136 134 135 136 135 142 145 148 143 143 143 140 140 140 144 142 139 136 131 125 120 117 104 120 123 126 127 127 127 125 124 124 127 126 124 126 127 127 123 121 113 115
297 289 283 285 286 285 286 288 286 281 279 282 288 289 288 290 293 297 293 293 292 292 290 286 284 288 293 294 291 292 296 305 308 301 293 287 291 297 30 14 342 345 25 107 140 110 129 136 136 135 139 140 134 132 134 133 137 138 140 143 142 140 137 130 127 124 122 119 122 124 123 125 124 127 128 127 125 121 122 123 128 128 129 132 130 130 132
298 301 298 300 294 295 296 294 292 286 282 280 287 293 299 297 293 292 292 293 293 293 289 289 293 294 294 294 296 299 304 313 322 326 323 334 32 35 28 18 9 1 101 125 127 133 132 134 132 132 133 133 131 132 132 132 132 133 135 132 133 131 124 118 117 105 118 123 120 119 119 122 122 124 123 123 121 122 124 125 121 124 123 125 128 135 134
302 304 304 301 299 301 299 299 295 290 291 292 289 288 290 291 294 294 295 295 295 295 294 295 293 291 291 294 296 299 320 347 344 346 350 347 358 9 9 351 352 352 82 124 131 130 131 130 131 131 126 125 126 128 126 124 124 129 129 129 125 115 94 97 110 121 125 125 126 129 128 126 124 122 126 123 122 123 128 122 121 123 133 139 140 138 138
305 305 302 303 302 302 300 296 294 295 294 292 291 292 291 293 295 294 299 306 307 303 298 294 292 295 296 299 302 320 339 341 347 347 12 19 352 347 47 337 351 331 108 116 124 120 102 97 110 119 120 118 122 125 123 123 123 123 109 104 101 104 116 120 115 111 107 111 114 118 120 125 125 125 124 123 126 129 124 124 122 130 134 130 130 141 143
308 309 308 306 303 301 299 298 298 297 297 297 296 296 299 300 295 293 300 303 299 300 301 303 311 313 314 315 314 316 310 332 344 344 355 21 18 3 98 145 111 99 112 107 108 79 88 102 112 107 110 115 121 121 120 122 125 122 98 106 117 110 105 108 107 110 113 111 106 117 124 127 127 128 128 128 128 129 130 134 136 135 127 128 129 133 142
308 306 304 303 303 301 298 296 296 298 300 301 304 302 298 294 297 302 305 301 308 317 321 322 321 321 324 329 337 346 345 340 329 343 359 351 33 31 31 78 82 103 105 90 85 90 95 97 99 105 106 113 116 114 117 119 106 112 111 113 112 109 101 107 108 109 112 114 120 123 127 125 127 128 129 128 127 124 123 122 119 120 116 121 124 143 159
306 304 303 301 299 298 298 301 304 305 303 301 300 300 303 308 309 307 305 307 323 327 328 328 329 333 329 334 342 346 334 344 339 337 356 15 37 46 38 77 84 88 82 85 81 84 85 92 98 101 107 110 111 114 119 112 70 93 104 106 105 108 105 106 106 105 106 108 108 113 113 118 123 123 126 122 126 127 128 124 119 119 121 123 133 160 181
303 302 300 300 300 299 301 302 301 299 299 302 303 306 310 309 312 312 309 317 317 321 327 329 335 338 338 335 324 359 17 13 15 9 19 38 79 97 74 69 64 70 83 81 79 87 90 93 92 92 95 96 101 103 106 85 68 89 95 98 99 100 98 100 99 102 104 107 110 111 113 113 113 111 111 120 120 117 114 109 106 109 120 134 148 161 192
303 302 301 299 299 302 304 304 302 302 304 307 311 314 318 318 318 318 319 319 323 327 334 342 342 342 339 341 343 344 3 8 20 26 37 65 77 77 66 64 66 73 76 84 86 88 93 89 88 88 90 92 94 93 81 53 59 87 91 92 94 93 89 95 100 101 100 98 100 99 96 99 101 102 104 100 103 105 113 115 120 125 127 131 145 170 197
304 303 303 301 302 307 306 305 309 308 310 314 314 313 316 318 317 320 323 329 328 345 358 355 353 350 350 346 345 355 340 357 63 49 19 55 61 67 73 84 86 91 88 82 81 83 83 85 87 89 90 89 89 73 54 83 80 87 87 92 88 91 95 91 81 89 102 106 105 95 95 92 81 92 100 107 107 111 114 119 128 133 145 159 188 204 208
303 298 297 300 304 303 311 318 313 311 316 316 318 322 324 322 314 326 348 350 347 354 7 6 2 3 359 358 9 12 28 20 45 81 47 61 73 78 77 77 81 87 88 87 83 75 77 83 84 84 81 80 76 76 69 71 80 84 81 79 73 81 86 79 82 86 85 102 105 107 102 103 105 108 109 104 109 112 119 123 132 142 164 176 191 208 218
300 298 307 313 309 315 321 313 311 316 320 319 322 327 330 331 335 352 358 353 355 4 9 8 9 7 10 13 22 29 37 51 56 60 64 63 64 70 77 81 83 82 81 83 83 80 76 76 75 74 76 78 77 77 80 79 71 80 82 86 86 77 72 89 94 90 92 98 96 101 105 104 106 103 104 106 111 122 131 144 152 160 165 172 206 230 237
300 309 312 304 307 311 308 307 311 320 317 322 328 334 341 347 350 355 355 359 356 11 15 14 19 18 16 23 30 34 42 47 54 55 64 68 73 69 64 73 78 77 76 73 74 73 66 63 67 73 73 72 75 77 74 74 70 76 79 73 75 82 90 90 88 87 88 94 98 101 101 103 103 106 109 116 120 126 136 143 156 175 188 207 220 232 239
303 305 294 309 316 308 305 309 317 325 323 330 336 345 346 350 352 359 2 10 4 6 22 17 25 22 22 25 31 39 43 50 55 61 63 68 73 74 68 67 69 71 71 70 63 51 59 63 71 75 78 74 64 76 80 79 75 77 77 82 89 82 85 96 100 92 86 94 91 88 90 98 108 111 111 120 133 145 154 169 182 198 207 221 227 236 245